When you browse on this site, cookies collect data to enhance your experience and personalize the content and advertising you see.
Visit our Privacy Policy to learn more. By continuing to use the site, you agree to this use of cookies and data.
  • In Sweden
  • List of Countries
  • For 7 days
  • Water Temperature
  • Satellite Maps
  • Weather Map
  • Weather Widgets
  • user-avatar
    Login

    Hourly Weather Dundee

    Today, 18 June, Tuesday

    Time Temperature Precipitation Wind Pressure Humidity
    00:00 +8°C° 0 mm 2 mps 747 mmHg 94%
    01:00 +8°C° 0 mm 2 mps 747 mmHg 94%
    02:00 +8°C° 0 mm 2 mps 747 mmHg 95%
    03:00 +7°C° 0 mm 2 mps 747 mmHg 95%
    04:00 +8°C° 0 mm 3 mps 746 mmHg 94%
    05:00 +9°C° 0 mm 3 mps 746 mmHg 93%
    06:00 +10°C° 0 mm 3 mps 746 mmHg 92%
    07:00 +11°C° 0.1 mm 4 mps 746 mmHg 86%
    08:00 +12°C° 0.1 mm 5 mps 746 mmHg 81%
    09:00 +13°C° 0.1 mm 6 mps 746 mmHg 76%
    10:00 +13°C° 0 mm 6 mps 746 mmHg 75%
    11:00 +12°C° 0 mm 7 mps 746 mmHg 75%
    12:00 +12°C° 0 mm 7 mps 746 mmHg 75%
    13:00 +14°C° 0.1 mm 7 mps 746 mmHg 74%
    14:00 +15°C° 0.1 mm 7 mps 746 mmHg 73%
    15:00 +15°C° 0.1 mm 6 mps 746 mmHg 72%
    16:00 +15°C° 0 mm 6 mps 746 mmHg 74%
    17:00 +14°C° 0 mm 6 mps 746 mmHg 75%
    18:00 +14°C° 0 mm 5 mps 746 mmHg 77%
    19:00 +13°C° 0 mm 4 mps 746 mmHg 81%
    20:00 +11°C° 0 mm 4 mps 747 mmHg 85%
    21:00 +10°C° 0 mm 3 mps 747 mmHg 90%
    22:00 +9°C° 0 mm 3 mps 746 mmHg 91%
    23:00 +9°C° 0 mm 2 mps 746 mmHg 92%

    Tomorrow, 19 June, Wednesday

    Time Temperature Precipitation Wind Pressure Humidity
    00:00 +8°C° 0 mm 2 mps 746 mmHg 93%
    01:00 +7°C° 0 mm 2 mps 746 mmHg 93%
    02:00 +7°C° 0 mm 2 mps 745 mmHg 94%
    03:00 +7°C° 0 mm 2 mps 745 mmHg 94%
    04:00 +9°C° 0 mm 1 mps 745 mmHg 93%
    05:00 +10°C° 0 mm 1 mps 745 mmHg 91%
    06:00 +11°C° 0 mm 1 mps 745 mmHg 90%
    07:00 +12°C° 0 mm 2 mps 744 mmHg 86%
    08:00 +13°C° 0 mm 2 mps 744 mmHg 83%
    09:00 +15°C° 0 mm 2 mps 744 mmHg 80%
    10:00 +14°C° 0.1 mm 3 mps 744 mmHg 77%
    11:00 +16°C° 0.1 mm 3 mps 744 mmHg 75%
    12:00 +17°C° 0.1 mm 3 mps 744 mmHg 72%
    13:00 +17°C° 0.3 mm 3 mps 744 mmHg 73%
    14:00 +16°C° 0.3 mm 3 mps 743 mmHg 74%
    15:00 +16°C° 0.3 mm 3 mps 743 mmHg 76%
    16:00 +16°C° 0.3 mm 3 mps 743 mmHg 77%
    17:00 +16°C° 0.3 mm 3 mps 743 mmHg 79%
    18:00 +16°C° 0.3 mm 3 mps 743 mmHg 81%
    19:00 +13°C° 0.1 mm 3 mps 743 mmHg 82%
    20:00 +12°C° 0.1 mm 3 mps 743 mmHg 84%
    21:00 +10°C° 0.1 mm 3 mps 743 mmHg 86%
    22:00 +10°C° 0 mm 3 mps 743 mmHg 88%
    23:00 +9°C° 0 mm 3 mps 743 mmHg 89%

    Day after tomorrow, 20 June, Thursday

    Time Temperature Precipitation Wind Pressure Humidity
    00:00 +8°C° 0 mm 3 mps 743 mmHg 91%
    01:00 +8°C° 0 mm 3 mps 743 mmHg 92%
    02:00 +7°C° 0 mm 3 mps 742 mmHg 93%
    03:00 +7°C° 0 mm 3 mps 742 mmHg 94%
    04:00 +6°C° 0 mm 4 mps 742 mmHg 92%
    05:00 +7°C° 0 mm 4 mps 742 mmHg 90%
    06:00 +8°C° 0 mm 5 mps 742 mmHg 88%
    07:00 +9°C° 0 mm 5 mps 743 mmHg 84%
    08:00 +10°C° 0 mm 6 mps 743 mmHg 81%
    09:00 +11°C° 0 mm 6 mps 743 mmHg 77%
    10:00 +12°C° 0.1 mm 7 mps 743 mmHg 74%
    11:00 +12°C° 0.1 mm 7 mps 743 mmHg 71%
    12:00 +14°C° 0.1 mm 7 mps 744 mmHg 67%
    13:00 +14°C° 0.1 mm 7 mps 744 mmHg 67%
    14:00 +14°C° 0.1 mm 7 mps 744 mmHg 66%
    15:00 +14°C° 0.1 mm 7 mps 744 mmHg 66%
    16:00 +14°C° 0 mm 7 mps 745 mmHg 68%
    17:00 +13°C° 0 mm 6 mps 745 mmHg 70%
    18:00 +11°C° 0 mm 6 mps 745 mmHg 72%
    19:00 +10°C° 0 mm 5 mps 746 mmHg 74%
    20:00 +9°C° 0 mm 5 mps 746 mmHg 77%
    21:00 +7°C° 0 mm 4 mps 747 mmHg 80%
    22:00 +6°C° 0 mm 4 mps 747 mmHg 82%
    23:00 +5°C° 0 mm 4 mps 747 mmHg 84%

    21 June, Friday

    Time Temperature Precipitation Wind Pressure Humidity
    00:00 +5°C° 0 mm 3 mps 748 mmHg 86%
    01:00 +5°C° 0 mm 3 mps 748 mmHg 87%
    02:00 +4°C° 0 mm 3 mps 748 mmHg 88%
    03:00 +4°C° 0 mm 3 mps 748 mmHg 89%
    04:00 +5°C° 0 mm 3 mps 748 mmHg 87%
    05:00 +7°C° 0 mm 3 mps 748 mmHg 85%
    06:00 +8°C° 0 mm 3 mps 748 mmHg 83%
    07:00 +8°C° 0 mm 4 mps 749 mmHg 79%
    08:00 +10°C° 0 mm 4 mps 749 mmHg 75%
    09:00 +12°C° 0 mm 4 mps 749 mmHg 71%
    10:00 +12°C° 0.2 mm 4 mps 749 mmHg 70%
    11:00 +13°C° 0.2 mm 5 mps 749 mmHg 68%
    12:00 +14°C° 0.2 mm 5 mps 749 mmHg 67%
    13:00 +14°C° 0.3 mm 5 mps 750 mmHg 67%
    14:00 +14°C° 0.3 mm 5 mps 750 mmHg 67%
    15:00 +14°C° 0.3 mm 6 mps 750 mmHg 67%
    16:00 +14°C° 0.2 mm 5 mps 751 mmHg 70%
    17:00 +13°C° 0.2 mm 5 mps 751 mmHg 72%
    18:00 +13°C° 0.2 mm 5 mps 751 mmHg 74%
    19:00 +11°C° 0 mm 4 mps 752 mmHg 77%
    20:00 +10°C° 0 mm 4 mps 752 mmHg 79%
    21:00 +8°C° 0 mm 3 mps 753 mmHg 82%
    22:00 +7°C° 0 mm 3 mps 753 mmHg 84%
    23:00 +5°C° 0 mm 3 mps 753 mmHg 86%

    22 June, Saturday

    Time Temperature Precipitation Wind Pressure Humidity
    00:00 +5°C° 0 mm 2 mps 753 mmHg 88%
    01:00 +5°C° 0 mm 2 mps 753 mmHg 88%
    02:00 +5°C° 0 mm 2 mps 753 mmHg 89%
    03:00 +4°C° 0 mm 2 mps 754 mmHg 90%
    04:00 +5°C° 0 mm 2 mps 754 mmHg 88%
    05:00 +6°C° 0 mm 2 mps 754 mmHg 85%
    06:00 +7°C° 0 mm 2 mps 754 mmHg 83%
    07:00 +9°C° 0 mm 2 mps 754 mmHg 78%
    08:00 +12°C° 0 mm 2 mps 754 mmHg 72%
    09:00 +12°C° 0 mm 3 mps 754 mmHg 66%
    10:00 +13°C° 0 mm 3 mps 754 mmHg 65%
    11:00 +14°C° 0 mm 3 mps 754 mmHg 64%
    12:00 +16°C° 0 mm 3 mps 754 mmHg 64%
    13:00 +16°C° 0.2 mm 3 mps 754 mmHg 68%
    14:00 +16°C° 0.2 mm 3 mps 754 mmHg 72%
    15:00 +15°C° 0.2 mm 4 mps 754 mmHg 76%
    16:00 +16°C° 0.4 mm 3 mps 754 mmHg 77%
    17:00 +16°C° 0.4 mm 3 mps 754 mmHg 79%
    18:00 +14°C° 0.4 mm 3 mps 754 mmHg 80%
    19:00 +14°C° 0.2 mm 2 mps 754 mmHg 83%
    20:00 +13°C° 0.2 mm 2 mps 754 mmHg 85%
    21:00 +11°C° 0.2 mm 1 mps 755 mmHg 87%
    22:00 +11°C° 0 mm 1 mps 755 mmHg 88%
    23:00 +10°C° 0 mm 1 mps 755 mmHg 88%

    23 June, Sunday

    Time Temperature Precipitation Wind Pressure Humidity
    00:00 +9°C° 0 mm 1 mps 755 mmHg 89%
    01:00 +9°C° 0 mm 1 mps 755 mmHg 89%
    02:00 +9°C° 0 mm 1 mps 755 mmHg 89%
    03:00 +8°C° 0 mm 0 mps 755 mmHg 89%
    04:00 +9°C° 0 mm 0 mps 755 mmHg 89%
    05:00 +10°C° 0 mm 0 mps 755 mmHg 88%
    06:00 +11°C° 0 mm 0 mps 755 mmHg 88%
    07:00 +13°C° 0 mm 1 mps 755 mmHg 84%
    08:00 +14°C° 0 mm 1 mps 755 mmHg 80%
    09:00 +15°C° 0 mm 1 mps 756 mmHg 76%
    10:00 +16°C° 0 mm 2 mps 756 mmHg 74%
    11:00 +17°C° 0 mm 2 mps 756 mmHg 71%
    12:00 +17°C° 0 mm 3 mps 756 mmHg 69%
    13:00 +17°C° 0 mm 3 mps 756 mmHg 71%
    14:00 +17°C° 0 mm 4 mps 755 mmHg 73%
    15:00 +17°C° 0 mm 4 mps 755 mmHg 75%
    16:00 +15°C° 0 mm 4 mps 755 mmHg 77%
    17:00 +15°C° 0 mm 4 mps 755 mmHg 78%
    18:00 +14°C° 0 mm 4 mps 755 mmHg 79%
    19:00 +12°C° 0 mm 3 mps 756 mmHg 83%
    20:00 +11°C° 0 mm 3 mps 756 mmHg 87%
    21:00 +9°C° 0 mm 2 mps 756 mmHg 90%
    22:00 +9°C° 0 mm 2 mps 756 mmHg 92%
    23:00 +8°C° 0 mm 2 mps 756 mmHg 93%
    Show more